Regional Weather Roundup
Issued by NWS

Home | Current Version | Previous Version | Text Only | Print | Product List | Glossary On
Versions: 1 2 3 4 5 6 7 8 9 10 11 12 13 14 15 16 17 18 19 20 21 22 23 24 25 26 27 28 29 30 31 32 33 34 35 36 37 38 39 40 41 42 43 44 45 46 47 48 49 50
000
ASUS46 KLOX 040113
RWRCA

SOUTHERN CALIFORNIA WEATHER ROUNDUP
NATIONAL WEATHER SERVICE OXNARD CALIFORNIA
600 PM PDT THU SEP 03 2015

NOTE: "FAIR" INDICATES FEW OR NO CLOUDS BELOW 12,000 FEET WITH NO
SIGNIFICANT WEATHER AND/OR OBSTRUCTIONS TO VISIBILITY.

  -  STATIONS PRECEEDED BY AN ASTERISK (*) ARE NOT NWS OR FAA
     STATIONS AND ARE NOT SUBJECT TO NWS AND FAA QUALITY CONTROL.

CAZ041-042-087-040200-
LA AND ORANGE COUNTY COASTAL AREAS


CITY           SKY/WX    TMP DP  RH WIND       PRES   REMARKS
L.A. DOWNTOWN  SUNNY     74  56  53 VRB3      29.82S
L.A. AIRPORT   MOSUNNY   71  58  63 SW9       29.83S
LONG BEACH     NOT AVBL

CITY           SKY/WX    TMP DP  RH WIND       PRES   REMARKS
AVALON           N/A     70 N/A N/A MISG        N/A
FULLERTON      SUNNY     75  58  55 S8        29.81S
*GETTY CENTER    N/A     70  57  64 SW12        N/A
HAWTHORNE      SUNNY     73  59  61 W10       29.83S
*LOS ALAMITOS  SUNNY     73  60  63 S8        29.82S
*REDONDO BEACH   N/A     73  58  60 W5        29.83S
SANTA ANA      MOSUNNY   72  59  63 S10       29.83R
STA MONICA APT SUNNY     72  58  61 SW9       29.83S
TORRANCE       MOSUNNY   73  61  64 NW14      29.83S
*UCLA            N/A     70  55  60 SW6G14    29.80S

$$

CAZ547-548-048-040200-
LA COUNTY VALLEYS AND INLAND EMPIRE


CITY           SKY/WX    TMP DP  RH WIND       PRES   REMARKS
BURBANK        SUNNY     74  56  53 S9        29.81F
VAN NUYS       SUNNY     76  54  46 S9        29.81F

CITY           SKY/WX    TMP DP  RH WIND       PRES   REMARKS
CORONA AIRPORT CLEAR     77  58  51 W16       29.80S
*CHATSWORTH      N/A     79  53  40 SW1       29.80S
CHINO          SUNNY     78  57  48 W16       29.81S
MARCH AFB      SUNNY     81  56  42 NW9       29.82S
*NORTHRIDGE      N/A     77  50  38 E3          N/A
ONTARIO        SUNNY     78  56  46 W16       29.81S
*PASADENA        N/A     75  59  57 E3          N/A
POMONA         SUNNY     77  55  47 SW12      29.85S
RIVERSIDE      SUNNY     80  56  43 W13G18    29.80S
SAN BERNARDINO SUNNY     84  46  26 W9        29.80F
*SAN GABRIEL     N/A     75  58  56 SW5       29.87S
*WHITEMAN AP   SUNNY     73  55  53 MISG      29.85F
*WOODLAND HILL   N/A     75  52  43 S6          N/A

$$

CAZ054-055-040200-
LA AND SAN BERNARDINO COUNTY MOUNTAINS


CITY           SKY/WX    TMP DP  RH WIND       PRES   REMARKS
*BIG BEAR AIRP CLEAR     64  36  34 CALM      30.08S
*CHILAO          N/A     64  33  31 SE20        N/A
SANDBERG       SUNNY     70  42  36 S16G25    29.96S
*WARM SPRINGS    N/A     70  51  51 S2G14       N/A

$$

CAZ028-029-059-060-099-040200-
ANTELOPE VALLEY AND SURROUNDING AREAS


CITY           SKY/WX    TMP DP  RH WIND       PRES   REMARKS
LANCASTER      SUNNY     80  32  17 SW22G29   29.82F
PALMDALE       SUNNY     78  47  33 W21       29.82S
*POPPY PARK      N/A      0 -24  31 SW15G28     N/A  WCI -19

CITY           SKY/WX    TMP DP  RH WIND       PRES   REMARKS
29 PALMS       MOSUNNY   91  39  16 SW25G32   29.79F
BARSTOW/DAGGET SUNNY     93  30  10 SW23G30   29.73F
BISHOP         SUNNY     87  21   9 S17G25    29.73S
CHINA LAKE     MOSUNNY   89  31  12 S22G30    29.73F
EDWARDS AFB    MOSUNNY   83  23  10 SW28      29.76F
MOJAVE         SUNNY     82  36  18 SW17G24   29.82S
NEEDLES        FAIR     102  40  12 S15G21    29.66F HX  97
VICTORVILLE    SUNNY     81  39  22 S24G31    29.82F

$$

CAZ039-040-040200-
VENTURA AND SANTA BARBARA COUNTY COAST


CITY           SKY/WX    TMP DP  RH WIND       PRES   REMARKS
CAMARILLO      SUNNY     74  59  59 W12       29.82S
NWS OXNARD       N/A     73  60  65 CALM      29.82S
OXNARD AIRPORT SUNNY     72  60  66 W12       29.82F
*POINT MUGU    MOSUNNY   74  61  63 W10       29.83S
SBA APT/GOLETA SUNNY     74  55  51 SW7       29.81F
*SANTA BARBARA   N/A     76  54  45 NE3       29.89S
*VENTURA         N/A     74  57  56 SW6       29.44S

$$

CAZ044-045-040200-
VENTURA COUNTY VALLEYS


CITY           SKY/WX    TMP DP  RH WIND       PRES   REMARKS
*SIMI VALLEY     N/A     74  60  61 SW3       29.77S
*OJAI            N/A     74  60  63 W2        29.75S
*FILLMORE        N/A     74  61  63 W2        29.72S

$$

CAZ053-040200-
VENTURA COUNTY MOUNTAINS


CITY           SKY/WX    TMP DP  RH WIND       PRES   REMARKS
*LOCKWOOD VLY    N/A     68  43  40 MISG        N/A
*ROSE VALLEY     N/A     70  59  68 MISG        N/A

$$

CAZ034-035-036-040200-
CENTRAL COAST AND SANTA YNEZ VALLEY


CITY           SKY/WX    TMP DP  RH WIND       PRES   REMARKS
SAN LUIS OBISP SUNNY     68  51  54 NW17G25   29.85S
SANTA MARIA    SUNNY     69  51  52 NW20      29.85F

CITY           SKY/WX    TMP DP  RH WIND       PRES   REMARKS
*CAL POLY SLO    N/A     68  54  60 S6          N/A
*LOMPOC        SUNNY     70  48  46 W14G21    29.88S
*PISMO BEACH     N/A     66  57  71 W1        29.84S
*SANTA YNEZ    FAIR      72  46  40 W16       29.85R

$$

CAZ037-038-051-040200-
SAN LUIS OBISPO COUNTY INTERIOR AND CUYAMA VALLEY


CITY           SKY/WX    TMP DP  RH WIND       PRES   REMARKS
*CUYAMA          N/A     76  53  45 W15       29.73S
PASO ROBLES    SUNNY     78  47  33 SW18      29.80S

$$

CAZ032-033-061-040200-
SOUTHERN DESERTS


CITY           SKY/WX    TMP DP  RH WIND       PRES   REMARKS
BLYTHE         SUNNY    103  36  10 SW15      29.64F HX  97
IMPERIAL       SUNNY    101  42  13 W15       29.62S HX  96
PALM SPRINGS   SUNNY     97  42  15 NW22G28   29.67F HX  93
THERMAL        SUNNY    101  38  11 CALM      29.60F HX  95

$$

ELSEWHERE ACROSS THE WESTERN UNITED STATES AND MEXICO


CITY           SKY/WX    TMP DP  RH WIND       PRES   REMARKS
DEATH VALLEY,    N/A    104  24   6 SE9         N/A  HX  96
DENVER, CO     RAIN      65  57  75 W14       30.01F
GRAND CANYON,  PTCLDY    74  37  26 SW13G23   30.11R
HONOLULU, HI   HVY RAIN  79  73  83 E15G24    29.86  VSB 3/4
KAHULUI, MAUI  MOSUNNY   84  73  70 SW6       29.85F HX  91
LAKE TAHOE, CA MOSUNNY   63  36  36 SW7       29.97S
LAS VEGAS, NV  MOSUNNY   96  32  10 W14G22    29.66F HX  90
MAMMOTH LAKES, FAIR      66  34  30 W22       30.00S
MEXICO CITY, M CLOUDY    59  55  88 SW6       30.24
PHOENIX, AZ    MOCLDY    80  67  64 S28G43    29.81R
PORTLAND, OR   CLOUDY    63  50  62 NW9       30.00F
RENO, NV       MOSUNNY   74  34  23 W16       29.85S
SALT LAKE CITY MOCLDY    88  30  12 S17G35    29.74F
SAN DIEGO, CA  MOSUNNY   73  57  57 W9        29.85F
SAN FRANCISCO, MOSUNNY   64  53  67 SW18      29.86F
SAN JOSE, CA   MOSUNNY   70  51  51 NW15      29.84F
SEATTLE, WA    PTSUNNY   63  45  51 SW7       29.99S
TIJUANA, MEX   SUNNY     72  54  53 W7        29.87

$$

STATION/POSITION TIME  TEMP    WIND        PRES    VSBY  WAVE
                       AIR SEA DIR/SP/G                  HT/PER
                 (UTC) (F)     (DEG/KT/KT) (MB)    (MI)  (FT/S)
POINT ARGUELLO B NOT AVBL
WEST SANTA BARBA 0050   65 67  320/ 19/ 23 1009.7F         6/11
POINT CONCEPTION NOT AVBL
EAST SANTA BARBA 0100   69 72  270/ 14/ 16 1010.0F
SANTA MONICA BAY 0050   69 72  300/  6/ 10 1010.0F         3/11


USA.gov is the U.S. government's official web portal to all federal, state and local government web resources and services.